Alexandria, Egypt

3:27 PM EET on October 20, 2017 (GMT +0200)
Alexandria

Weather History for HEAX - June, 2013

Change the Weather History Date:

Wednesday, June 19, 2013

  Actual Average Record
Temperature  
Mean Temperature 80 °F -  
Max Temperature 86 °F 83 °F 93 °F (2014)
Min Temperature 73 °F 72 °F 69 °F (2001)
Cooling Degree Days 14    
Growing Degree Days 30 (Base 50)    
Moisture  
Dew Point 69 °F    
Average Humidity 71    
Maximum Humidity 94    
Minimum Humidity 44    
Precipitation  
Precipitation 0.00 in 0.00 in - ()
Sea Level Pressure  
Sea Level Pressure 29.73 in    
Wind  
Wind Speed 7 mph ()    
Max Wind Speed 10 mph    
Max Gust Speed -    
Visibility 6.1 miles    
Events      
Averages and records for this station are not official NWS values.
T = Trace of Precipitation, MM = Missing Value Source: Averaged Metar Reports

Daily Weather History Graph

Daily Weather History Graph

Search for Another Location

Airport or City:

Trip Planner

Search our weather history database for the weather conditions in past years. The results will help you decide how hot, cold, wet, or windy it might be!

Date:

Astronomy

Jun. 19, 2013 Rise Set
Actual Time 4:56 AM EET 7:06 PM EET
Civil Twilight 4:28 AM EET 7:34 PM EET
Nautical Twilight 3:54 AM EET 8:08 PM EET
Astronomical Twilight 3:17 AM EET 8:45 PM EET
Moon 2:48 PM EET (6/19) 1:14 AM EET (6/19)
Length of Visible Light 15h 06m
Length of Day
14h 10m
Waxing Gibbous, 78% of the Moon is Illuminated
Jun 19
Waxing Gibbous
Jun 23
Full
Jun 30
Last Quarter
Jul 8
New
Jul 16
First Quarter

Hourly Weather History & Observations

Time (EET) Temp. Heat Index Dew Point Humidity Pressure Visibility Wind Dir Wind Speed Gust Speed Precip Events Conditions
12:00 AM 75.2 °F - 71.6 °F 89% 29.71 in 6.2 mi NNW 8.1 mph - N/A   Partly Cloudy
1:00 AM 75.2 °F - 71.6 °F 89% 29.71 in 6.2 mi North 5.8 mph - N/A   Partly Cloudy
2:00 AM 74 °F - 72 °F 90% 29.71 in 6 mi NNW 6.9 mph - -   Scattered Clouds
2:00 AM 75.2 °F - 71.6 °F 89% 29.71 in 6.2 mi NNW 6.9 mph - N/A   Partly Cloudy
3:00 AM 73.4 °F - 71.6 °F 94% 29.71 in 6.2 mi NNW 8.1 mph - N/A   Partly Cloudy
4:00 AM 73.4 °F - 71.6 °F 94% 29.71 in 6.2 mi NNW 6.9 mph - N/A   Partly Cloudy
5:00 AM 73.4 °F - 71.6 °F 94% 29.71 in 6.2 mi NNW 6.9 mph - N/A   Partly Cloudy
6:00 AM 75.2 °F - 69.8 °F 83% 29.71 in 6.2 mi North 4.6 mph - N/A   Partly Cloudy
7:00 AM 78.8 °F - 69.8 °F 74% 29.71 in - North 6.9 mph - N/A   Clear
8:00 AM 80 °F - 69 °F 62% 29.74 in 6 mi NNW 4.6 mph - -  
8:00 AM 80.6 °F 83.9 °F 69.8 °F 70% 29.74 in - NNW 8.1 mph - N/A   Clear
9:00 AM 82.4 °F 85.4 °F 68.0 °F 62% 29.74 in - NNW 5.8 mph - N/A   Clear
10:00 AM 82.4 °F 85.4 °F 68.0 °F 62% 29.74 in - NNW 8.1 mph - N/A   Clear
11:00 AM 84.2 °F 87.3 °F 68.0 °F 58% 29.74 in - NW 6.9 mph - N/A   Clear
12:00 PM 86.0 °F 89.4 °F 68.0 °F 55% 29.74 in - WNW 8.1 mph - N/A   Clear
1:00 PM 86.0 °F 88.2 °F 66.2 °F 51% 29.74 in - NNW 9.2 mph - N/A   Clear
2:00 PM 86 °F - 67 °F 44% 29.74 in 6 mi NW 8.1 mph - -  
2:00 PM 86.0 °F 89.4 °F 68.0 °F 55% 29.74 in - NW 8.1 mph - N/A   Clear
3:00 PM 86.0 °F 89.4 °F 68.0 °F 55% 29.74 in - NW 9.2 mph - N/A   Clear
3:14 PM 86.0 °F 89.4 °F 68.0 °F 55% 29.74 in - NW 9.2 mph - N/A   Clear
4:00 PM 84.2 °F 87.3 °F 68.0 °F 58% 29.71 in - NW 10.4 mph - N/A   Clear
5:00 PM 84.2 °F 87.3 °F 68.0 °F 58% 29.71 in - NW 9.2 mph - N/A   Clear
6:00 PM 80.6 °F 83.9 °F 69.8 °F 70% 29.71 in - NW 9.2 mph - N/A   Clear
7:00 PM 78.8 °F - 69.8 °F 74% 29.74 in - NNW 8.1 mph - N/A   Clear
8:00 PM 78 °F - 69 °F 68% 29.75 in 6 mi NNW 9.2 mph - -  
8:00 PM 77.0 °F - 69.8 °F 78% 29.74 in - NNW 9.2 mph - N/A   Clear
9:00 PM 77.0 °F - 68.0 °F 74% 29.74 in - NNW 5.8 mph - N/A   Clear
10:00 PM 77.0 °F - 68.0 °F 74% 29.74 in - NNW 6.9 mph - N/A   Clear
11:00 PM 77.0 °F - 66.2 °F 69% 29.74 in - North 4.6 mph - N/A   Clear